TimeEST,TemperatureF,Dew PointF,Humidity,Sea Level PressureIn,VisibilityMPH,Wind Direction,Wind SpeedMPH,Gust SpeedMPH,PrecipitationIn,Events,Conditions,WindDirDegrees,DateUTC
12:23 AM,37.4,35.6,93,29.51,10.0,North,3.5,-,N/A,,Overcast,360,2013-03-01 05:23:00
12:53 AM,37.9,35.1,89,29.51,10.0,Calm,Calm,-,N/A,,Overcast,0,2013-03-01 05:53:00
1:16 AM,37.4,35.6,93,29.51,10.0,Calm,Calm,-,N/A,,Overcast,0,2013-03-01 06:16:00
1:40 AM,37.4,35.6,93,29.51,10.0,NW,3.5,-,N/A,,Overcast,310,2013-03-01 06:40:00
1:53 AM,37.9,35.1,89,29.52,10.0,NW,3.5,-,N/A,,Overcast,320,2013-03-01 06:53:00
2:09 AM,37.4,35.6,93,29.52,10.0,NNW,4.6,-,N/A,,Overcast,340,2013-03-01 07:09:00
2:38 AM,37.4,35.6,93,29.51,10.0,Calm,Calm,-,N/A,,Overcast,0,2013-03-01 07:38:00
2:53 AM,37.9,35.1,89,29.52,10.0,Calm,Calm,-,N/A,,Overcast,0,2013-03-01 07:53:00
3:02 AM,37.4,35.6,93,29.52,10.0,Calm,Calm,-,N/A,,Overcast,0,2013-03-01 08:02:00
3:10 AM,37.4,35.6,93,29.52,10.0,Calm,Calm,-,N/A,,Overcast,0,2013-03-01 08:10:00
3:53 AM,37.9,35.1,89,29.53,9.0,Calm,Calm,-,N/A,,Overcast,0,2013-03-01 08:53:00
4:53 AM,37.0,34.0,89,29.55,10.0,NNW,3.5,-,N/A,,Overcast,330,2013-03-01 09:53:00
5:39 AM,37.4,33.8,87,29.55,10.0,Calm,Calm,-,N/A,,Overcast,0,2013-03-01 10:39:00
5:53 AM,37.0,34.0,89,29.55,10.0,Calm,Calm,-,N/A,,Overcast,0,2013-03-01 10:53:00
6:40 AM,35.6,33.8,93,29.56,7.0,Calm,Calm,-,N/A,,Scattered Clouds,0,2013-03-01 11:40:00
6:53 AM,35.6,33.8,93,29.56,7.0,Calm,Calm,-,N/A,,Mostly Cloudy,0,2013-03-01 11:53:00
7:13 AM,35.6,33.8,93,29.57,8.0,Calm,Calm,-,N/A,,Scattered Clouds,0,2013-03-01 12:13:00
7:21 AM,35.6,33.8,93,29.57,9.0,NW,3.5,-,N/A,,Mostly Cloudy,310,2013-03-01 12:21:00
7:53 AM,37.0,34.0,89,29.59,10.0,NNW,3.5,-,N/A,,Overcast,340,2013-03-01 12:53:00
8:53 AM,39.9,33.1,77,29.59,10.0,Variable,5.8,-,N/A,,Mostly Cloudy,0,2013-03-01 13:53:00
9:19 AM,42.8,32.0,66,29.59,10.0,Variable,6.9,17.3,N/A,,Scattered Clouds,0,2013-03-01 14:19:00
9:31 AM,41.0,30.2,65,29.59,10.0,North,9.2,19.6,N/A,,Mostly Cloudy,350,2013-03-01 14:31:00
9:53 AM,41.0,30.2,65,29.60,10.0,NNW,8.1,-,N/A,,Overcast,330,2013-03-01 14:53:00
10:53 AM,42.1,30.0,62,29.61,10.0,North,9.2,-,N/A,,Overcast,350,2013-03-01 15:53:00
11:38 AM,42.8,28.4,57,29.61,10.0,North,9.2,-,N/A,,Overcast,350,2013-03-01 16:38:00
11:53 AM,44.1,28.0,53,29.61,10.0,NNW,6.9,-,N/A,,Overcast,340,2013-03-01 16:53:00
12:53 PM,44.1,28.0,53,29.59,10.0,North,8.1,16.1,N/A,,Overcast,350,2013-03-01 17:53:00
1:53 PM,44.6,26.6,49,29.59,10.0,Variable,5.8,-,N/A,,Overcast,0,2013-03-01 18:53:00
2:53 PM,44.1,27.0,51,29.60,10.0,North,6.9,-,N/A,,Overcast,350,2013-03-01 19:53:00
3:53 PM,42.1,27.0,55,29.61,10.0,North,10.4,-,N/A,,Overcast,10,2013-03-01 20:53:00
4:53 PM,41.0,27.0,57,29.63,10.0,Calm,Calm,-,N/A,,Overcast,0,2013-03-01 21:53:00
5:53 PM,39.9,26.1,58,29.65,10.0,NNW,4.6,-,N/A,,Overcast,330,2013-03-01 22:53:00
6:53 PM,39.0,25.0,57,29.66,10.0,Calm,Calm,-,N/A,,Overcast,0,2013-03-01 23:53:00
7:53 PM,37.9,26.1,62,29.67,10.0,Calm,Calm,-,N/A,,Overcast,0,2013-03-02 00:53:00
8:53 PM,37.9,26.1,62,29.67,10.0,Calm,Calm,-,N/A,,Overcast,0,2013-03-02 01:53:00
9:53 PM,37.9,26.1,62,29.67,10.0,NW,3.5,-,N/A,,Overcast,310,2013-03-02 02:53:00
10:53 PM,37.9,26.1,62,29.67,10.0,NW,4.6,-,N/A,,Overcast,320,2013-03-02 03:53:00
11:53 PM,37.0,26.1,65,29.67,10.0,NW,5.8,-,N/A,,Overcast,310,2013-03-02 04:53:00